Regional Weather Roundup
Issued by NWS

Home | Current Version | Previous Version | Graphics & Text | Print | Product List | Glossary On
Versions: 1 2 3 4 5 6 7 8 9 10 11 12 13 14 15 16 17 18 19 20 21 22 23 24 25 26 27 28 29 30 31 32 33 34 35 36 37 38 39 40 41 42 43 44 45 46 47 48 49 50
000
ASUS44 KMEG 030100
RWRTN
TENNESSEE HOURLY STATE WEATHER ROUNDUP
NATIONAL WEATHER SERVICE MEMPHIS TN
800 PM CDT THU JUL 02 2015

TNZ002-004-019-021-049-052-054-088>092-030200-
WEST TENNESSEE

CITY           SKY/WX    TMP DP  RH WIND       PRES   REMARKS
MEMPHIS INTL   CLOUDY    85  70  60 SW10G16   29.86R
NWS MEMPHIS      N/A     85 N/A N/A MISG        N/A
JACKSON        MOCLDY    77  71  82 S7        29.86R
DYERSBURG        N/A    N/A N/A N/A MISG        N/A
PARIS          CLEAR     73  72  94 SE3       29.86S
LEXINGTON      MOCLDY    73  72  94 S5        29.87F
$$

TNZ008-025-027-028-033-062-065-066-030200-
NORTH MIDDLE TENNESSEE

CITY           SKY/WX    TMP DP  RH WIND       PRES   REMARKS
NASHVILLE      CLOUDY    77  74  90 SW7       29.87R
CLARKSVILLE    MOCLDY    75  71  87 SW13      29.85R
COOKEVILLE     MOCLDY    75  73  94 S5        29.89S
CROSSVILLE     CLOUDY    74  67  78 S3        29.94F
$$

TNZ061-075-076-078-094-096-097-030200-
SOUTH MIDDLE TENNESSEE

CITY           SKY/WX    TMP DP  RH WIND       PRES   REMARKS
FAYETTEVILLE   MOCLDY    75  68  78 SW10      29.92S
TULLAHOMA      CLOUDY    73  68  83 SW8       29.93R
WINCHESTER     CLOUDY    75  70  83 W6        29.93R
SHELBYVILLE    MOCLDY   N/A N/A N/A MISG        N/A
$$

TNZ017-018-042-046-047-030200-
NORTHEAST TENNESSEE

CITY           SKY/WX    TMP DP  RH WIND       PRES   REMARKS
TRI CITIES     CLOUDY    71  65  81 SW6       29.95S
ELIZABETHTON   PTCLDY    66  64  94 NW3       29.95S
$$

TNZ012-013-036-069-073-074-030200-
CENTRAL EAST TENNESSEE

CITY           SKY/WX    TMP DP  RH WIND       PRES   REMARKS
KNOXVILLE      CLOUDY    74  68  81 SW6       29.91R
OAK RIDGE      MOCLDY    76  69  79 CALM      29.92R
GATLINBURG     PTCLDY    72  68  88 CALM      29.92R
$$

TNZ083-085-099-030200-
SOUTHEAST TENNESSEE

CITY           SKY/WX    TMP DP  RH WIND       PRES   REMARKS
CHATTANOOGA    CLOUDY    74  72  93 E3        29.92R
$$

SKY/WX REPORTED AS FAIR MEANS FEW OR NO CLOUDS BELOW
12 THOUSAND FEET.




USA.gov is the U.S. government's official web portal to all federal, state and local government web resources and services.